Time,TemperatureF,DewpointF,PressureIn,WindDirection,WindDirectionDegrees,WindSpeedMPH,WindSpeedGustMPH,Humidity,HourlyPrecipIn,Conditions,Clouds,dailyrainin,SoftwareType,DateUTC
2011-03-25 00:05:00,39.0,13.5,29.80,East,90,0.0,6.0,35,0.00,,,0.00,open2300-1.11,2011-03-25 06:05:00,
2011-03-25 00:15:00,39.2,14.3,29.80,ESE,112,6.0,6.0,36,0.00,,,0.00,open2300-1.11,2011-03-25 06:15:00,
2011-03-25 00:25:00,39.0,14.1,29.80,SE,135,1.1,6.0,36,0.00,,,0.00,open2300-1.11,2011-03-25 06:25:00,
2011-03-25 00:35:00,39.0,14.1,29.80,WSW,247,0.0,6.7,36,0.00,,,0.00,open2300-1.11,2011-03-25 06:35:00,
2011-03-25 00:45:00,39.0,14.1,29.80,SE,135,0.9,2.0,36,0.00,,,0.00,open2300-1.11,2011-03-25 06:45:00,
2011-03-25 00:55:00,38.5,13.6,29.80,SSE,157,2.7,2.7,36,0.00,,,0.00,open2300-1.11,2011-03-25 06:55:00,
2011-03-25 01:05:00,38.1,14.0,29.81,SE,135,0.0,2.9,37,0.00,,,0.00,open2300-1.11,2011-03-25 07:05:00,
2011-03-25 01:15:00,37.9,13.8,29.80,East,90,0.0,4.7,37,0.00,,,0.00,open2300-1.11,2011-03-25 07:15:00,
2011-03-25 01:25:00,37.8,13.6,29.80,SE,135,1.3,1.3,37,0.00,,,0.00,open2300-1.11,2011-03-25 07:25:00,
2011-03-25 01:35:00,37.6,14.1,29.80,South,180,0.0,3.6,38,0.00,,,0.00,open2300-1.11,2011-03-25 07:35:00,
2011-03-25 01:45:00,37.2,13.8,29.79,ESE,112,0.0,1.3,38,0.00,,,0.00,open2300-1.11,2011-03-25 07:45:00,
2011-03-25 01:55:00,37.0,14.3,29.79,SE,135,3.4,3.4,39,0.00,,,0.00,open2300-1.11,2011-03-25 07:55:00,
2011-03-25 02:05:00,37.0,13.6,29.80,SSE,157,1.8,3.4,38,0.00,,,0.00,open2300-1.11,2011-03-25 08:05:00,
2011-03-25 02:15:00,36.7,14.0,29.80,East,90,0.0,1.8,39,0.00,,,0.00,open2300-1.11,2011-03-25 08:15:00,
2011-03-25 02:25:00,36.7,14.0,29.80,East,90,0.0,6.3,39,0.00,,,0.00,open2300-1.11,2011-03-25 08:25:00,
2011-03-25 02:35:00,36.3,13.6,29.81,SE,135,0.0,1.6,39,0.00,,,0.00,open2300-1.11,2011-03-25 08:35:00,
2011-03-25 02:45:00,36.1,13.5,29.81,NE,45,2.2,2.2,39,0.00,,,0.00,open2300-1.11,2011-03-25 08:45:00,
2011-03-25 02:55:00,35.8,13.1,29.81,SSE,157,0.0,2.2,39,0.00,,,0.00,open2300-1.11,2011-03-25 08:55:00,
2011-03-25 03:05:00,35.4,13.5,29.81,SSW,202,0.0,0.0,40,0.00,,,0.00,open2300-1.11,2011-03-25 09:05:00,
2011-03-25 03:15:00,35.2,13.3,29.81,South,180,0.0,0.0,40,0.00,,,0.00,open2300-1.11,2011-03-25 09:15:00,
2011-03-25 03:25:00,34.7,12.8,29.81,South,180,0.0,0.0,40,0.00,,,0.00,open2300-1.11,2011-03-25 09:25:00,
2011-03-25 03:35:00,34.5,13.7,29.81,South,180,0.0,0.0,42,0.00,,,0.00,open2300-1.11,2011-03-25 09:35:00,
2011-03-25 03:45:00,34.3,13.5,29.81,South,180,0.0,0.0,42,0.00,,,0.00,open2300-1.11,2011-03-25 09:45:00,
2011-03-25 03:55:00,34.2,13.4,29.81,South,180,0.0,0.0,42,0.00,,,0.00,open2300-1.11,2011-03-25 09:55:00,
2011-03-25 04:05:00,34.2,13.4,29.81,South,180,0.7,0.7,42,0.00,,,0.00,open2300-1.11,2011-03-25 10:05:00,
2011-03-25 04:15:00,34.2,13.9,29.81,ESE,112,0.0,0.7,43,0.00,,,0.00,open2300-1.11,2011-03-25 10:15:00,
2011-03-25 04:25:00,34.2,13.9,29.80,ESE,112,0.0,0.0,43,0.00,,,0.00,open2300-1.11,2011-03-25 10:25:00,
2011-03-25 04:35:00,34.3,14.5,29.80,ESE,112,0.0,1.8,44,0.00,,,0.00,open2300-1.11,2011-03-25 10:35:00,
2011-03-25 04:45:00,34.2,14.4,29.80,ESE,112,0.0,0.0,44,0.00,,,0.00,open2300-1.11,2011-03-25 10:45:00,
2011-03-25 04:55:00,33.8,14.0,29.79,ENE,67,0.0,0.0,44,0.00,,,0.00,open2300-1.11,2011-03-25 10:55:00,
2011-03-25 05:05:00,34.3,15.0,29.79,East,90,0.4,4.9,45,0.00,,,0.00,open2300-1.11,2011-03-25 11:05:00,
2011-03-25 05:15:00,34.5,14.7,29.79,SSE,157,1.3,1.3,44,0.00,,,0.00,open2300-1.11,2011-03-25 11:15:00,
2011-03-25 05:25:00,34.5,15.2,29.79,SE,135,3.4,3.4,45,0.00,,,0.00,open2300-1.11,2011-03-25 11:25:00,
2011-03-25 05:35:00,34.9,15.6,29.78,SE,135,1.3,3.4,45,0.00,,,0.00,open2300-1.11,2011-03-25 11:35:00,
2011-03-25 05:45:00,35.2,15.4,29.78,SE,135,0.0,1.3,44,0.00,,,0.00,open2300-1.11,2011-03-25 11:45:00,
2011-03-25 05:55:00,35.2,15.9,29.78,SE,135,2.7,2.7,45,0.00,,,0.00,open2300-1.11,2011-03-25 11:55:00,
2011-03-25 06:05:00,35.4,16.1,29.77,ENE,67,6.0,6.0,45,0.00,,,0.00,open2300-1.11,2011-03-25 12:05:00,
2011-03-25 06:15:00,36.3,16.4,29.78,East,90,6.0,8.9,44,0.00,,,0.00,open2300-1.11,2011-03-25 12:15:00,
2011-03-25 06:25:00,37.0,16.0,29.78,East,90,6.7,6.7,42,0.00,,,0.00,open2300-1.11,2011-03-25 12:25:00,
2011-03-25 06:35:00,37.2,15.6,29.78,SE,135,0.0,6.7,41,0.00,,,0.00,open2300-1.11,2011-03-25 12:35:00,
2011-03-25 06:45:00,37.0,16.0,29.79,SE,135,0.0,0.0,42,0.00,,,0.00,open2300-1.11,2011-03-25 12:45:00,
2011-03-25 06:55:00,37.0,15.5,29.78,SSE,157,0.0,3.4,41,0.00,,,0.00,open2300-1.11,2011-03-25 12:55:00,
2011-03-25 07:05:00,37.2,15.6,29.78,SSE,157,0.0,4.9,41,0.00,,,0.00,open2300-1.11,2011-03-25 13:05:00,
2011-03-25 07:15:00,37.2,15.6,29.78,SSE,157,0.0,2.0,41,0.00,,,0.00,open2300-1.11,2011-03-25 13:15:00,
2011-03-25 07:25:00,37.2,15.6,29.78,SE,135,0.0,3.6,41,0.00,,,0.00,open2300-1.11,2011-03-25 13:25:00,
2011-03-25 07:35:00,37.2,15.6,29.78,SSE,157,2.0,2.0,41,0.00,,,0.00,open2300-1.11,2011-03-25 13:35:00,
2011-03-25 07:45:00,37.0,15.5,29.78,SE,135,1.3,2.0,41,0.00,,,0.00,open2300-1.11,2011-03-25 13:45:00,
2011-03-25 07:55:00,37.2,16.1,29.78,SE,135,0.0,1.3,42,0.00,,,0.00,open2300-1.11,2011-03-25 13:55:00,
2011-03-25 08:05:00,37.4,16.3,29.77,SSE,157,1.1,1.1,42,0.00,,,0.00,open2300-1.11,2011-03-25 14:05:00,
2011-03-25 08:15:00,38.1,17.0,29.77,East,90,0.0,3.4,42,0.00,,,0.00,open2300-1.11,2011-03-25 14:15:00,
2011-03-25 08:25:00,39.0,17.2,29.76,East,90,3.8,9.6,41,0.00,,,0.00,open2300-1.11,2011-03-25 14:25:00,
2011-03-25 08:35:00,39.4,17.0,29.76,East,90,0.0,4.2,40,0.00,,,0.00,open2300-1.11,2011-03-25 14:35:00,
2011-03-25 09:45:00,43.0,19.0,29.76,North,0,0.0,1.3,38,0.00,,,0.00,open2300-1.11,2011-03-25 15:45:00,
2011-03-25 10:05:00,43.5,19.4,29.76,ENE,67,0.0,0.0,38,0.00,,,0.00,open2300-1.11,2011-03-25 16:05:00,
2011-03-25 10:15:00,44.2,18.1,29.76,ENE,67,0.0,0.0,35,0.00,,,0.00,open2300-1.11,2011-03-25 16:15:00,
2011-03-25 10:25:00,44.8,17.2,29.76,South,180,0.0,5.6,33,0.00,,,0.00,open2300-1.11,2011-03-25 16:25:00,
2011-03-25 10:35:00,45.7,16.7,29.76,SSE,157,3.8,6.0,31,0.00,,,0.00,open2300-1.11,2011-03-25 16:35:00,
2011-03-25 10:45:00,46.2,16.5,29.77,SE,135,2.2,3.8,30,0.00,,,0.00,open2300-1.11,2011-03-25 16:45:00,
2011-03-25 10:55:00,46.2,16.5,29.76,SSE,157,0.0,3.1,30,0.00,,,0.00,open2300-1.11,2011-03-25 16:55:00,
2011-03-25 11:05:00,46.8,17.0,29.76,SE,135,2.0,2.0,30,0.00,,,0.00,open2300-1.11,2011-03-25 17:05:00,
2011-03-25 11:15:00,47.5,17.7,29.76,SSE,157,2.9,2.9,30,0.00,,,0.00,open2300-1.11,2011-03-25 17:15:00,
2011-03-25 11:25:00,48.0,18.2,29.76,SE,135,3.8,3.8,30,0.00,,,0.00,open2300-1.11,2011-03-25 17:25:00,
2011-03-25 11:35:00,48.0,18.2,29.76,SSE,157,3.1,5.6,30,0.00,,,0.00,open2300-1.11,2011-03-25 17:35:00,
2011-03-25 11:45:00,48.4,17.5,29.76,South,180,0.0,4.9,29,0.00,,,0.00,open2300-1.11,2011-03-25 17:45:00,
2011-03-25 11:55:00,48.7,16.9,29.75,SSE,157,0.0,1.6,28,0.00,,,0.00,open2300-1.11,2011-03-25 17:55:00,
2011-03-25 12:05:00,48.6,18.6,29.76,SW,225,5.4,6.5,30,0.00,,,0.00,open2300-1.11,2011-03-25 18:05:00,
2011-03-25 12:15:00,48.2,17.4,29.76,WSW,247,2.5,8.3,29,0.00,,,0.00,open2300-1.11,2011-03-25 18:15:00,
2011-03-25 12:25:00,48.2,18.3,29.75,South,180,0.0,6.3,30,0.00,,,0.00,open2300-1.11,2011-03-25 18:25:00,
2011-03-25 12:35:00,48.0,18.2,29.76,WSW,247,2.5,5.6,30,0.00,,,0.00,open2300-1.11,2011-03-25 18:35:00,
2011-03-25 12:45:00,48.0,18.2,29.75,South,180,5.4,5.4,30,0.00,,,0.00,open2300-1.11,2011-03-25 18:45:00,
2011-03-25 12:55:00,48.0,18.8,29.74,South,180,0.9,5.4,31,0.00,,,0.00,open2300-1.11,2011-03-25 18:55:00,
2011-03-25 13:05:00,48.6,18.6,29.74,SSW,202,4.9,6.9,30,0.00,,,0.00,open2300-1.11,2011-03-25 19:05:00,
2011-03-25 13:15:00,49.6,20.8,29.73,SSW,202,2.7,5.4,32,0.00,,,0.00,open2300-1.11,2011-03-25 19:15:00,
2011-03-25 13:25:00,50.4,21.5,29.74,WNW,292,4.5,8.5,32,0.00,,,0.00,open2300-1.11,2011-03-25 19:25:00,
2011-03-25 13:35:00,50.4,21.5,29.73,SW,225,5.1,5.1,32,0.00,,,0.00,open2300-1.11,2011-03-25 19:35:00,
2011-03-25 13:45:00,50.5,21.6,29.73,WNW,292,3.1,5.1,32,0.00,,,0.00,open2300-1.11,2011-03-25 19:45:00,
2011-03-25 13:55:00,52.9,24.4,29.72,SSW,202,6.3,7.8,33,0.00,,,0.00,open2300-1.11,2011-03-25 19:55:00,
2011-03-25 14:05:00,53.8,23.1,29.72,SW,225,7.8,7.8,30,0.00,,,0.00,open2300-1.11,2011-03-25 20:05:00,
2011-03-25 14:15:00,53.4,22.8,29.71,WSW,247,0.0,7.8,30,0.00,,,0.00,open2300-1.11,2011-03-25 20:15:00,
2011-03-25 14:25:00,53.8,22.2,29.71,West,270,3.1,8.1,29,0.00,,,0.00,open2300-1.11,2011-03-25 20:25:00,
2011-03-25 14:35:00,53.8,23.1,29.71,South,180,10.1,10.1,30,0.00,,,0.00,open2300-1.11,2011-03-25 20:35:00,
2011-03-25 14:45:00,55.9,25.6,29.70,West,270,5.6,11.9,31,0.00,,,0.00,open2300-1.11,2011-03-25 20:45:00,
2011-03-25 14:55:00,57.0,24.9,29.70,WSW,247,10.1,10.1,29,0.00,,,0.00,open2300-1.11,2011-03-25 20:55:00,
2011-03-25 15:05:00,56.8,24.8,29.69,WSW,247,2.7,10.1,29,0.00,,,0.00,open2300-1.11,2011-03-25 21:05:00,
2011-03-25 15:15:00,56.8,24.8,29.69,West,270,6.3,7.8,29,0.00,,,0.00,open2300-1.11,2011-03-25 21:15:00,
2011-03-25 15:25:00,57.0,24.9,29.68,WSW,247,1.8,6.3,29,0.00,,,0.00,open2300-1.11,2011-03-25 21:25:00,
2011-03-25 15:35:00,57.7,25.6,29.68,WSW,247,5.8,7.8,29,0.00,,,0.00,open2300-1.11,2011-03-25 21:35:00,
2011-03-25 15:45:00,57.4,26.2,29.68,WSW,247,2.5,5.8,30,0.00,,,0.00,open2300-1.11,2011-03-25 21:45:00,
2011-03-25 15:55:00,57.6,26.4,29.67,WSW,247,11.6,13.6,30,0.00,,,0.00,open2300-1.11,2011-03-25 21:55:00,
2011-03-25 16:05:00,58.8,26.5,29.66,WSW,247,6.3,11.6,29,0.00,,,0.00,open2300-1.11,2011-03-25 22:05:00,
2011-03-25 16:15:00,59.2,25.9,29.67,WSW,247,5.1,10.3,28,0.00,,,0.00,open2300-1.11,2011-03-25 22:15:00,
2011-03-25 16:25:00,59.4,26.0,29.67,SW,225,8.9,8.9,28,0.00,,,0.00,open2300-1.11,2011-03-25 22:25:00,
2011-03-25 16:35:00,59.4,24.1,29.67,West,270,2.2,8.9,26,0.00,,,0.00,open2300-1.11,2011-03-25 22:35:00,
2011-03-25 16:45:00,57.9,23.8,29.66,WSW,247,0.0,5.4,27,0.00,,,0.00,open2300-1.11,2011-03-25 22:45:00,
2011-03-25 16:55:00,57.4,23.3,29.67,West,270,2.5,10.3,27,0.00,,,0.00,open2300-1.11,2011-03-25 22:55:00,
2011-03-25 17:05:00,56.3,22.4,29.67,SW,225,6.5,6.5,27,0.00,,,0.00,open2300-1.11,2011-03-25 23:05:00,
2011-03-25 17:15:00,55.8,23.8,29.67,NNW,337,10.7,10.7,29,0.00,,,0.00,open2300-1.11,2011-03-25 23:15:00,
2011-03-25 17:25:00,56.1,25.1,29.67,WNW,292,4.9,10.7,30,0.00,,,0.00,open2300-1.11,2011-03-25 23:25:00,
2011-03-25 17:35:00,56.3,25.2,29.67,NW,315,5.1,6.5,30,0.00,,,0.00,open2300-1.11,2011-03-25 23:35:00,
2011-03-25 17:45:00,55.8,24.8,29.67,West,270,6.5,10.3,30,0.00,,,0.00,open2300-1.11,2011-03-25 23:45:00,
2011-03-25 17:53:00,55.0,24.1,29.68,West,270,4.9,6.5,30,0.00,,,0.00,open2300-1.11,2011-03-25 23:53:00,
2011-03-25 18:03:00,54.7,24.5,29.67,NE,45,7.2,7.2,31,0.00,,,0.00,open2300-1.11,2011-03-26 00:03:00,
2011-03-25 18:13:00,54.5,24.4,29.67,WNW,292,3.8,8.5,31,0.00,,,0.00,open2300-1.11,2011-03-26 00:13:00,
2011-03-25 18:23:00,54.0,24.0,29.68,NW,315,6.5,6.5,31,0.00,,,0.00,open2300-1.11,2011-03-26 00:23:00,
2011-03-25 18:33:00,53.4,24.2,29.68,West,270,1.1,6.5,32,0.00,,,0.00,open2300-1.11,2011-03-26 00:33:00,
2011-03-25 18:43:00,52.9,23.7,29.68,WSW,247,6.3,6.3,32,0.00,,,0.00,open2300-1.11,2011-03-26 00:43:00,
2011-03-25 18:53:00,52.5,24.1,29.68,WSW,247,4.0,6.7,33,0.00,,,0.00,open2300-1.11,2011-03-26 00:53:00,
2011-03-25 19:03:00,52.2,23.8,29.68,NW,315,7.4,7.4,33,0.00,,,0.00,open2300-1.11,2011-03-26 01:03:00,
2011-03-25 19:13:00,51.6,23.3,29.70,NW,315,7.6,7.6,33,0.00,,,0.00,open2300-1.11,2011-03-26 01:13:00,
2011-03-25 19:23:00,51.1,23.5,29.70,WNW,292,0.9,7.6,34,0.00,,,0.00,open2300-1.11,2011-03-26 01:23:00,
2011-03-25 19:33:00,50.7,23.8,29.71,WNW,292,4.2,5.6,35,0.00,,,0.00,open2300-1.11,2011-03-26 01:33:00,
2011-03-25 19:43:00,50.2,23.3,29.71,WSW,247,0.0,4.0,35,0.00,,,0.00,open2300-1.11,2011-03-26 01:43:00,
2011-03-25 19:53:00,49.8,23.7,29.72,WNW,292,0.0,4.9,36,0.00,,,0.00,open2300-1.11,2011-03-26 01:53:00,
2011-03-25 20:03:00,49.3,23.9,29.73,WNW,292,4.2,4.2,37,0.00,,,0.00,open2300-1.11,2011-03-26 02:03:00,
2011-03-25 20:13:00,48.9,23.6,29.73,West,270,1.6,5.8,37,0.00,,,0.00,open2300-1.11,2011-03-26 02:13:00,
2011-03-25 20:23:00,48.7,23.5,29.74,WNW,292,2.2,3.6,37,0.00,,,0.00,open2300-1.11,2011-03-26 02:23:00,
2011-03-25 20:33:00,48.4,23.8,29.74,SW,225,1.6,5.1,38,0.00,,,0.00,open2300-1.11,2011-03-26 02:33:00,
2011-03-25 20:43:00,47.8,23.3,29.75,WSW,247,3.4,3.4,38,0.00,,,0.00,open2300-1.11,2011-03-26 02:43:00,
2011-03-25 20:53:00,47.5,23.7,29.75,WNW,292,4.2,6.3,39,0.00,,,0.00,open2300-1.11,2011-03-26 02:53:00,
2011-03-25 21:03:00,47.3,23.5,29.76,WNW,292,3.4,4.2,39,0.00,,,0.00,open2300-1.11,2011-03-26 03:03:00,
2011-03-25 21:13:00,46.9,23.2,29.76,West,270,0.7,6.5,39,0.00,,,0.00,open2300-1.11,2011-03-26 03:13:00,
2011-03-25 21:23:00,46.6,23.5,29.76,West,270,0.0,1.8,40,0.00,,,0.00,open2300-1.11,2011-03-26 03:23:00,
2011-03-25 21:33:00,46.2,23.7,29.77,WNW,292,0.0,1.3,41,0.00,,,0.00,open2300-1.11,2011-03-26 03:33:00,